Lid_Strength_Index
4 3 2 2 2 3 4 5 10 3 2 9 9 12 11 9 9 9 10 11 11 14 15 17 17 17 15 13 14 15 14 15 19 17 16 16 16 16 16 18 20 20 20 18
3 4 4 2 2 2 5 8 8 5 4 13 12 10 10 9 10 9 9 11 11 12 14 15 16 16 13 12 13 14 13 16 21 18 17 17 17 16 16 17 18 21 20 19
2 3 4 4 2 2 3 9 12 9 9 9 10 11 11 11 8 9 9 10 11 12 12 12 14 15 14 13 13 10 11 15 16 16 17 16 18 17 16 15 21 18 17 16
3 3 4 5 4 2 5 8 11 10 12 11 11 11 11 12 12 9 9 11 10 11 13 13 13 14 14 14 12 13 13 16 17 16 16 16 16 17 17 17 15 17 15 16
3 3 4 4 4 4 8 10 11 11 11 10 11 11 12 12 11 12 12 12 10 10 12 12 13 13 14 14 15 14 14 16 17 18 17 17 18 17 16 16 15 15 16 17
2 3 4 4 5 5 9 11 10 11 11 12 12 11 11 12 10 11 11 10 11 12 11 11 13 11 12 12 14 15 15 17 17 17 19 18 18 18 17 17 16 14 17 13
1 3 3 4 4 5 8 10 10 12 15 12 12 12 11 11 11 11 12 11 13 13 12 12 13 14 14 13 15 13 16 16 16 23 20 22 19 21 17 16 16 17 18 19
2 2 3 3 4 4 7 8 10 13 15 13 14 13 12 11 12 12 13 14 14 12 12 16 17 18 17 19 20 17 16 16 21 21 21 19 20 21 18 17 18 17 15 16
1 2 2 2 3 4 7 8 8 11 14 15 12 14 14 15 16 17 18 16 15 13 14 16 19 20 18 20 21 18 16 16 16 22 22 22 20 19 19 18 21 20 16 17
1 1 1 1 3 3 7 8 7 9 12 13 13 14 14 13 14 17 17 17 16 15 16 18 19 19 18 21 22 21 20 20 18 20 20 19 18 19 18 20 18 19 19 18
1 1 1 1 2 3 7 8 8 10 12 12 12 12 13 14 14 16 17 16 17 17 17 17 18 19 19 20 20 20 19 19 20 20 21 21 18 18 18 16 17 17 17 17
1 1 0 1 1 2 5 10 7 9 12 12 10 11 11 10 10 13 14 13 16 14 16 16 17 20 20 20 20 20 19 17 18 17 18 17 16 16 15 15 16 16 16 16
1 1 0 0 0 1 4 8 9 11 15 14 15 14 11 10 10 9 13 14 13 13 13 15 17 18 18 21 20 20 19 18 19 18 19 18 16 15 15 14 15 15 14 14
1 1 1 0 0 1 3 7 7 9 14 19 16 13 13 10 10 11 11 13 13 13 13 16 17 18 16 19 17 18 17 18 20 20 18 17 16 14 13 13 14 14 14 13
1 1 1 1 0 0 2 5 6 7 10 16 17 15 13 12 11 12 12 13 14 15 17 18 19 17 18 18 18 19 18 19 19 20 16 15 14 12 12 12 12 13 13 14
1 1 1 0 0 0 3 8 5 5 6 13 17 14 15 12 12 12 13 13 14 15 16 17 16 15 15 20 21 16 16 15 14 14 13 12 11 11 11 12 12 12 13 13
1 1 1 0 0 1 6 8 7 3 4 11 16 17 13 12 13 14 13 12 13 14 15 18 15 15 15 21 21 16 15 13 12 12 12 13 12 12 12 12 12 13 14 14
0 0 0 -0 -0 0 5 3 2 2 7 8 13 21 14 10 13 13 12 14 14 15 16 15 17 14 16 21 16 14 13 13 13 12 11 11 11 13 13 14 15 16 15 15
-0 -0 -0 2 3 7 7 1 0 3 6 10 12 18 18 10 11 12 12 12 18 13 17 15 15 17 20 15 14 13 13 13 12 13 13 14 13 13 14 15 17 15 13 15
-0 3 6 8 6 1 2 5 7 8 8 8 12 21 19 11 11 14 15 16 17 20 17 12 14 18 13 13 13 12 11 12 13 15 16 20 17 14 14 14 13 12 13 16
5 6 8 5 1 6 8 10 10 10 12 10 15 18 14 12 16 17 11 15 13 17 19 17 18 21 13 10 12 10 10 11 12 11 12 13 13 13 13 15 14 15 17 18
4 5 4 5 8 11 12 12 12 12 13 13 17 17 14 13 11 13 12 14 15 17 18 16 20 17 18 17 16 14 15 15 15 15 13 15 15 17 17 19 20 22 22 22
5 7 8 9 11 14 16 17 16 17 16 14 15 16 14 14 12 12 13 15 16 15 17 20 19 19 24 25 23 23 22 21 22 22 22 20 23 24 25 25 26 25 26 28
9 11 14 13 14 14 17 18 18 17 17 16 17 14 14 14 14 13 15 15 15 17 18 21 24 27 28 27 27 29 27 26 25 27 25 24 25 27 28 28 28 26 28 30
11 11 14 15 18 21 27 28 23 20 17 13 14 16 12 16 14 13 15 18 18 19 22 26 27 28 28 29 30 30 30 29 30 31 29 27 28 29 32 32 31 29 30 29
12 17 17 19 18 22 23 26 19 17 15 16 15 17 17 17 16 16 18 18 21 22 28 27 27 29 30 31 32 32 32 34 33 32 31 29 29 30 33 32 31 30 29 30
21 24 25 26 24 24 26 25 17 13 15 17 13 15 17 13 15 17 21 20 25 25 25 25 27 28 29 30 31 33 34 34 34 35 33 34 34 33 30 30 33 34 33 32